Lobo

Go HERE for most recent data if this page is not up to date.

Jump to table bottom
Date/Time Temp deg F RH % 24 Hr Snow (in) Snow Depth (in) H2O (in)
05/20 00:00 25.9 73 "NAN" 32.9 0.00
05/19 23:00 26.4 78 "NAN" 32.9 0.00
05/19 22:00 27.4 72 "NAN" 32.9 0.00
05/19 21:00 28.4 65 "NAN" 32.9 0.00
05/19 20:00 30.6 58 "NAN" 32.9 0.00
05/19 19:00 31.6 40 "NAN" 32.9 0.00
05/19 18:00 32.5 47 "NAN" 32.9 0.00
05/19 17:00 31.7 47 "NAN" 33.1 0.00
05/19 16:00 33.1 54 "NAN" 32.8 0.00
05/19 15:00 32.1 58 "NAN" 32.7 0.00
05/19 14:00 31.3 63 "NAN" 32.9 0.00
05/19 13:00 31.3 49 "NAN" 32.9 0.00
05/19 12:00 30.7 59 "NAN" 33.1 0.00
05/19 11:00 29.5 80 "NAN" 32.9 0.00
05/19 10:00 29.2 68 "NAN" 32.8 0.00
05/19 09:00 29.4 79 "NAN" 32.9 0.00
05/19 08:00 29.5 74 "NAN" 32.9 0.00
05/19 07:00 30.4 73 "NAN" 32.9 0.00
05/19 06:00 31.2 62 "NAN" 32.9 0.00
05/19 05:00 32.8 52 "NAN" 32.9 0.00
05/19 04:00 33.1 41 "NAN" 32.9 0.00
05/19 03:00 33.1 50 "NAN" 32.8 0.00
05/19 02:00 35.0 40 "NAN" 33.0 0.00
05/19 01:00 36.5 33 "NAN" 33.0 0.00
05/19 00:00 37.8 39 "NAN" 33.0 0.00
.